Location: *
(40.4270°N, 9.4940°E)
Time: 12:14:43
(UTC+01:00)

Daily predictions for brighter satellites

Satellite Brightness Start Highest point End
(mag) Time Altitude Azimuth Time Altitude Azimuth Time Altitude Azimuth
Cosmos 990 Rocket 4.3 17:18:11 10° SSW 17:23:18 73° WNW 17:28:30 10° NNE
USA 215 3.3 17:17:48 10° ESE 17:24:16 66° NE 17:30:44 10° NW
SJ 16-02 2.5 17:21:19 10° SSE 17:24:54 25° E 17:28:29 10° NE
Cosmos 1484 Rocket 3.2 17:22:12 10° SSE 17:26:02 45° ENE 17:29:53 10° N
Cosmos 1975 Rocket 3.2 17:22:15 10° S 17:26:42 83° W 17:31:13 10° N
SMAP 3.3 17:24:40 10° SE 17:29:08 48° ENE 17:33:37 10° N
MSX 4.3 17:23:32 10° S 17:29:16 71° WSW 17:35:03 10° NNW
Cosmos 1666 2.9 17:26:14 10° N 17:29:51 44° E 17:33:26 10° SSE
Cosmos 2369 4.3 17:24:47 10° S 17:29:57 38° ESE 17:35:12 10° NE
DELTA 2 R/B (1) 3.7 17:24:59 10° W 17:30:34 81° S 17:36:10 10° E
Cosmos 2278 4.4 17:25:33 10° S 17:30:40 36° ESE 17:35:51 10° NE
Cosmos 389 Rocket 2.3 17:27:44 10° N 17:31:13 71° E 17:34:38 10° SSE
USA 161 3.0 17:29:38 10° N 17:32:23 39° WNW 17:35:14 10° SW
IRAS Rocket 4.2 17:28:52 10° SSE 17:34:18 70° ENE 17:39:46 10° N
CSL-04 Rocket 3.7 17:34:06 10° SSE 17:39:30 77° ENE 17:45:01 10° N
Cosmos 1975 3.2 17:35:33 10° NNW 17:39:34 69° W 17:43:36 10° S
ALOS 3.5 17:39:52 10° ESE 17:43:14 20° ENE 17:46:38 10° NNE
Cosmos 158 Rocket 4.0 17:42:41 10° N 17:47:41 54° ENE 17:52:30 10° SE
Cosmos 1697 Rocket 3.5 17:44:22 10° SSE 17:49:16 31° ESE 17:53:59 11° NE
CENTAUR R/B 4.1 17:44:02 10° NNW 17:49:59 23° NNE 17:55:29 12° E
Cosmos 1025 Rocket 4.4 17:47:03 10° SE 17:49:59 18° E 17:52:11 13° NE
Meteor 1-19 Rocket 4.2 17:45:14 10° S 17:50:54 82° E 17:56:43 10° NNE
Cosmos 1536 Rocket 3.6 17:50:40 10° S 17:54:56 59° E 17:59:13 10° NNE
Cosmos 1655 Rocket 4.4 17:49:35 10° N 17:55:58 73° W 18:02:19 10° S
Cosmos 2266 Rocket 4.0 17:50:58 10° N 17:56:56 55° E 18:02:57 10° SSE
Cosmos 2082 3.7 17:55:39 10° NNW 18:01:14 61° ENE 18:06:47 10° SE
CZ-4 R/B 1.2 17:57:34 10° SSE 18:01:25 77° ENE 18:05:22 10° N
Hubble Space Telescope 3.5 18:02:17 10° SW 18:04:13 13° S 18:06:09 10° SSE
Meteor 1-28 Rocket 3.3 18:01:46 10° N 18:05:31 77° WNW 18:09:17 10° SSW
SKYMED 2 3.8 18:04:45 10° NNE 18:08:57 46° E 18:13:07 10° S
Cosmos 2227 Rocket 2.2 18:07:32 10° NNW 18:13:14 85° WSW 18:18:52 10° SSE
EO 1 Del DPAF 3.7 18:12:41 19° NE 18:15:03 40° E 18:18:39 10° S
Cosmos 1743 4.3 18:11:46 10° NNW 18:15:23 38° W 18:19:00 10° SSW
SPOT 3 Rocket 3.8 18:12:20 10° SE 18:17:14 45° ENE 18:22:08 10° N
USA 238 DEB 4.0 18:10:25 10° NW 18:17:32 78° WSW 18:24:44 10° SSE
USA 238 3.9 18:10:31 10° NW 18:17:39 79° WSW 18:24:50 10° SSE
Cosmos 1515 4.0 18:14:20 10° SSE 18:17:54 41° E 18:19:48 23° NE
Okean 2 3.8 18:17:43 10° SSE 18:21:32 39° E 18:23:20 25° NE
MOS 1 4.2 18:16:35 10° SSE 18:22:11 64° ENE 18:27:49 10° N
Meteor 2-9 Rocket 4.3 18:20:14 10° NNW 18:25:43 74° W 18:31:03 10° S
Ariane Rocket 4.3 18:22:47 10° S 18:27:34 43° W 18:32:23 10° NNW
Meteor 1-23 Rocket 4.2 18:23:35 10° S 18:29:20 81° E 18:35:03 10° NNE
Cosmos 1980 Rocket 2.6 18:24:49 10° S 18:30:03 40° ESE 18:32:18 28° ENE
Landsat 4 3.9 18:29:46 11° N 18:33:23 72° WNW 18:37:10 10° SSW
ERS-2 1.9 18:33:42 10° SSE 18:37:22 80° ENE 18:41:03 10° N
Abrixas rocket 4.1 18:35:12 10° NW 18:37:30 19° N 18:37:30 19° N
Cosmos 494 Rocket 4.3 18:33:17 10° N 18:38:18 42° ENE 18:41:08 23° ESE
Atlas Centaur 2 4.0 18:35:06 10° WSW 18:38:37 18° SSW 18:41:41 10° SSE
Cosmos 1269 Rocket 4.0 18:33:39 10° NNW 18:38:58 85° WSW 18:44:15 10° SSE
Cosmos 2297 Rocket 2.7 18:34:16 10° NNW 18:39:50 60° WSW 18:45:22 10° S
YAOGAN 1 3.3 18:36:18 10° S 18:40:32 54° W 18:44:48 10° NNW
Cosmos 1125 Rocket 4.2 18:35:43 10° SW 18:40:53 53° WNW 18:46:05 10° N
PSLV R/B 3.0 18:39:44 10° W 18:42:48 76° NNW 18:42:48 76° NNW
ISS -1.3 18:41:28 10° W 18:44:05 22° SW 18:46:42 10° S
Cosmos 1656 4.2 18:40:35 10° SW 18:46:03 57° WNW 18:50:42 14° NNE
NOSS 3-2 (A) 4.0 18:38:58 10° NW 18:46:36 87° WSW 18:54:53 10° SSE
Cosmos 1553 Rocket 4.3 18:45:11 10° SSE 18:51:13 45° E 18:53:37 32° NE
Meteor 2-11 Rocket 4.3 18:45:31 10° S 18:51:39 84° E 18:57:50 10° N
NOSS 3-2 (C) 3.9 18:46:29 10° NNW 18:54:07 82° NE 19:02:24 10° SE
Cosmos 1417 Rocket 4.5 18:48:21 10° SSE 18:54:18 55° E 18:57:44 26° NNE
COSMO-SKYMED 1 3.4 18:52:58 11° N 18:56:59 49° WNW 19:01:10 10° SSW
ATLAS 2AS CENTAUR R/B 4.4 18:53:25 10° W 19:00:21 32° NW 19:06:48 12° NNE
ATLAS 3B R/B 3.9 18:54:46 10° NW 19:00:49 39° WSW 19:06:44 10° S
SJ 16-02 3.2 18:59:35 10° SW 19:03:22 28° WNW 19:06:53 11° N
NOAA 12 4.5 19:04:24 10° S 19:09:37 63° WSW 19:14:51 10° NNW
SL-24 R/B - RUBIN 2 4.2 19:04:18 10° SSW 19:10:36 86° WNW 19:12:15 50° NNE
SL-16 R/B 4.0 19:06:16 10° SSE 19:07:41 16° SSE 19:07:41 16° SSE
Cosmos 2344 4.3 19:04:39 10° S 19:10:22 32° ESE 19:10:22 32° ESE
Cosmos 2322 Rocket 4.1 19:11:27 10° SSE 19:12:41 16° SSE 19:12:41 16° SSE
Cosmos 2263 Rocket 4.4 19:12:16 10° N 19:12:32 11° N 19:12:32 11° N
DELTA 2 R/B (1) 3.6 19:11:25 10° W 19:16:58 71° SSW 19:17:39 63° SE
FENGYUN 3A 4.4 19:12:16 10° S 19:17:30 53° W 19:22:45 10° NNW
Cosmos 2360 4.1 19:11:56 10° SSW 19:17:40 90° WNW 19:18:47 60° NNE
ALOS 3.5 19:15:58 10° SSW 19:20:22 41° W 19:24:48 10° NNW
NOSS 3-4 (A) 3.9 19:14:46 10° SW 19:20:53 60° NW 19:23:22 36° NNE
NOSS 3-4 (C) 3.8 19:14:51 10° SW 19:20:59 60° NW 19:23:26 37° NNE
RESURS DK-1 3.7 19:18:12 10° SSW 19:20:26 31° SSW 19:20:26 31° SSW
DNEPR-1 R/B 4.0 19:17:33 10° NNW 19:22:47 81° ENE 19:22:56 80° E
Okean 1-7 Rocket 4.3 19:19:09 10° SSW 19:23:25 51° W 19:24:13 45° NW
Cosmos 1697 Rocket 4.0 19:27:55 10° SW 19:33:06 37° WNW 19:35:45 24° N
CENTAUR R/B 3.0 19:34:04 10° NNW 19:42:03 74° NE 19:42:45 70° E
S3M 4.5 19:56:45 10° SSW 20:02:43 55° W 20:02:43 55° W
Cosmos 1980 Rocket 3.8 20:09:10 10° WSW 20:14:07 30° WNW 20:14:07 30° WNW
